EW8958 Weather Reports


time (UTC)temp
C
wind
direction
speed
KPH
gust
KPH
rain 1hr
cm
rain 24hr
cm
rain mn
cm
humidity
%
barometer
mb
20260505014018 16 180 4.8 8.0 0.00 0.00 0.00 51 1009.3
20260505013019 16 169 4.8 6.4 0.00 0.00 0.00 50 1009.2
20260505012020 16 205 6.4 8.0 0.00 0.00 0.00 50 1009.1
20260505011016 16 136 6.4 14.5 0.00 0.00 0.00 49 1008.9
20260505010017 16 195 4.8 8.0 0.00 0.00 0.00 48 1008.7
20260505005032 17 218 8.0 11.3 0.00 0.00 0.00 47 1008.4
20260505004023 17 218 6.4 8.0 0.00 0.00 0.00 46 1008.3
20260505003018 17 265 8.0 12.9 0.00 0.00 0.00 46 1008.1
20260505002020 17 192 6.4 9.7 0.00 0.00 0.00 45 1008.0
20260505001022 17 160 4.8 6.4 0.00 0.00 0.00 45 1007.6
20260505000023 18 216 8.0 16.1 0.00 0.00 0.00 44 1007.4
20260504235024 18 159 8.0 12.9 0.00 0.00 0.00 42 1007.2
20260504234026 19 197 8.0 16.1 0.00 0.00 0.00 41 1006.9
20260504233022 19 205 4.8 8.0 0.00 0.00 0.00 38 1006.7
20260504232018 20 178 8.0 11.3 0.00 0.00 0.00 36 1006.5
20260504231020 20 190 3.2 6.4 0.00 0.00 0.00 34 1006.3
20260504230021 21 233 8.0 11.3 0.00 0.00 0.00 34 1006.1
20260504225017 21 203 4.8 11.3 0.00 0.00 0.00 33 1006.1
20260504224052 21 272 3.2 6.4 0.00 0.00 0.00 33 1006.0
20260504223032 21 226 4.8 8.0 0.00 0.00 0.00 33 1006.0
20260504222017 22 272 3.2 8.0 0.00 0.00 0.00 32 1005.9
20260504221031 22 261 4.8 8.0 0.00 0.00 0.00 32 1006.0
20260504220026 22 216 4.8 6.4 0.00 0.00 0.00 32 1006.0
20260504215022 22 221 6.4 11.3 0.00 0.00 0.00 31 1006.0
20260504214017 23 215 4.8 9.7 0.00 0.00 0.00 30 1006.0
20260504213020 23 57 6.4 19.3 0.00 0.00 0.00 30 1006.0
20260504212026 22 218 6.4 12.9 0.00 0.00 0.00 31 1006.1
20260504211023 -17 0.0 0.0 0.00 0.00 0.00 1006.1
20260504210018 23 141 6.4 9.7 0.00 0.00 0.00 30 1006.2
20260504205031 23 89 6.4 11.3 0.00 0.00 0.00 30 1006.2
20260504204023 23 306 4.8 8.0 0.00 0.00 0.00 30 1006.0
20260504203022 23 207 8.0 12.9 0.00 0.00 0.00 29 1006.0
20260504202025 23 204 8.0 14.5 0.00 0.00 0.00 28 1006.0
20260504201020 -17 203 12.9 12.9 0.00 0.00 0.00 1006.1
20260504200016 24 255 6.4 11.3 0.00 0.00 0.00 28 1006.2
20260504195031 24 233 8.0 11.3 0.00 0.00 0.00 27 1006.3
20260504194027 23 226 8.0 12.9 0.00 0.00 0.00 27 1006.3
20260504193024 24 236 4.8 8.0 0.00 0.00 0.00 27 1006.2
20260504192040 23 170 8.0 14.5 0.00 0.00 0.00 27 1006.1
20260504191022 24 171 6.4 9.7 0.00 0.00 0.00 28 1006.5
20260504190027 24 201 8.0 12.9 0.00 0.00 0.00 27 1006.8
20260504185022 23 234 8.0 12.9 0.00 0.00 0.00 27 1006.8
20260504184017 23 150 8.0 14.5 0.00 0.00 0.00 28 1006.9
20260504183020 23 245 9.7 14.5 0.00 0.00 0.00 27 1006.9
20260504182053 23 86 8.0 11.3 0.00 0.00 0.00 27 1006.8
20260504181047 23 175 11.3 14.5 0.00 0.00 0.00 29 1006.9
20260504180024 23 219 9.7 16.1 0.00 0.00 0.00 28 1006.9
20260504175040 23 195 8.0 12.9 0.00 0.00 0.00 29 1006.9
20260504174015 22 206 11.3 17.7 0.00 0.00 0.00 28 1007.1
20260504173029 23 233 9.7 14.5 0.00 0.00 0.00 29 1007.2
20260504172030 23 157 8.0 12.9 0.00 0.00 0.00 29 1007.3
20260504171032 22 222 6.4 11.3 0.00 0.00 0.00 29 1007.3
20260504151041 20 170 9.7 12.9 0.00 0.00 0.00 33 1008.5
20260504141019 19 212 4.8 11.3 0.00 0.00 0.00 38 1009.2
20260504110534 9 168 3.2 6.4 0.00 0.00 0.00 56 1010.2
20260504100528 -17 0.0 0.0 0.00 0.00 0.00 1010.4
20260504081535 6 0.0 0.0 0.00 0.00 0.00 66 1010.4
20260504080649 6 0.0 0.0 0.00 0.00 0.00 67 1010.3
20260504050548 -17 0.0 0.0 0.00 0.00 0.00 1010.2
20260504045517 -17 0.0 0.0 0.00 0.00 0.00 1010.2
20260504044531 -17 0.0 0.0 0.00 0.00 0.00 1010.2
20260504043528 1 0.0 0.0 0.00 0.00 0.00 73 1010.3
20260504042601 1 0.0 0.0 0.00 0.00 0.00 73 1010.3
20260504041519 1 0.0 0.0 0.00 0.00 0.00 72 1010.2
20260504040535 -17 0.0 0.0 0.00 0.00 0.00 1010.0
20260504035526 -17 0.0 0.0 0.00 0.00 0.00 1010.0
20260504034522 1 0.0 0.0 0.00 0.00 0.00 72 1010.0
20260504033533 1 0.0 0.0 0.00 0.00 0.00 70 1009.9
20260504032528 2 0.0 0.0 0.00 0.00 0.00 70 1009.9
20260504031533 2 0.0 0.0 0.00 0.00 0.00 71 1009.9
20260504030547 2 0.0 0.0 0.00 0.00 0.00 70 1009.8
20260504025517 2 0.0 0.0 0.00 0.00 0.00 69 1009.7
20260504024528 2 0.0 0.0 0.00 0.00 0.00 69 1009.8
20260504023520 2 0.0 0.0 0.00 0.00 0.00 69 1009.7
20260504022518 2 0.0 0.0 0.00 0.00 0.00 68 1009.7
20260504021528 3 0.0 0.0 0.00 0.00 0.00 67 1009.6
20260504020526 3 0.0 0.0 0.00 0.00 0.00 67 1009.5
20260504015524 3 0.0 0.0 0.00 0.00 0.00 65 1009.5
20260504014522 3 0.0 0.0 0.00 0.00 0.00 65 1009.4